Location: Praha
(50.0830°N, 14.4670°E)
Time: 21:41:37
(UTC+02:00)

ISS - Pass Details

Date: 22 September 2019
Orbit: 411 x 421 km, 51.6° (Epoch: 19 September)

Event Time Altitude Azimuth Distance (km) Brightness Sun altitude
Rises 19:46:36 0° 217° (SW) 2,334 0.4 -8.1°
Reaches altitude 10° 19:48:52 10° 205° (SSW) 1,475 -0.8 -8.4°
Maximum altitude 19:51:42 27° 146° (SE) 836 -2.6 -8.9°
Enters shadow 19:54:02 13° 92° (E) 1,302 -1.9 -9.3°
